Regional Weather Roundup
Issued by NWS Sioux Falls, SD

Home | Current Version | Previous Version | Graphics & Text | Print | Product List | Glossary Off
Versions: 1 2 3 4 5 6 7 8 9 10 11 12 13 14 15 16 17 18 19 20 21 22 23 24 25 26 27 28 29 30 31 32 33 34 35 36 37 38 39 40 41 42 43 44 45 46 47 48 49 50

000
ASUS43 KFSD 252010
RWRFSD

WEATHER ROUNDUP FOR SE SOUTH DAKOTA/SW MINNESOTA/NW IOWA
NATIONAL WEATHER SERVICE SIOUX FALLS SD
300 PM CDT SUN SEP 25 2016

NOTE: "FAIR" INDICATES FEW OR NO CLOUDS BELOW 12,000 FEET WITH NO
SIGNIFICANT WEATHER AND OR OBSTRUCTIONS TO VISIBILITY.


SDZ038>040-050-052>070-252100-
SOUTHEAST SOUTH DAKOTA

CITY           SKY/WX    TMP DP  RH WIND       PRES   REMARKS
BROOKINGS      CLOUDY    61  46  57 NW24      30.03R
CHAMBERLAIN    SUNNY     69  35  28 NW31G38   30.16R
HURON          PTSUNNY   66  38  35 NW28G37   30.07R
MADISON        MOCLDY    61  46  59 NW24G32   30.06S
MITCHELL       MOSUNNY   70  37  29 NW24G37   30.10S
SIOUX FALLS    PTSUNNY   64  47  53 NW20G37   30.06S
WINNER         FAIR      70  32  24 NW31G43   30.19F
YANKTON        PTSUNNY  N/A N/A N/A NW26G32   30.09S
$$

MNZ071-072-080-081-089-090-097-098-252100-
SOUTHWEST MINNESOTA

CITY           SKY/WX    TMP DP  RH WIND       PRES   REMARKS
FAIRMONT       CLOUDY    61  51  70 W22       29.99S
JACKSON        CLOUDY    61  46  59 W22G30    30.01S
LUVERNE        CLOUDY    59  45  58 NW16G26   30.07R
MARSHALL       CLOUDY    61  49  64 NW24G33   29.98R
MONTEVIDEO     CLOUDY    63  50  63 N18G28    29.97S
PIPESTONE      CLOUDY    59  48  67 NW15G22   30.04R
REDWOOD FALLS  LGT RAIN  60  50  69 W21G30    29.95S
TRACY          CLOUDY    62  51  67 NW18G25   30.00R
WINDOM         CLOUDY    61  48  63 W22G28    30.00R
WORTHINGTON    CLOUDY    57  50  77 W16G25    30.04R
$$

IAZ001>003-012>014-020>022-031-032-NEZ013-014-SDZ071-252100-
NORTHWEST IOWA

CITY           SKY/WX    TMP DP  RH WIND       PRES   REMARKS
CHEROKEE       CLOUDY    61  51  69 NW18G26   30.08S
DENISON        CLOUDY    64  48  55 NW21G30   30.08S
ESTHERVILLE    CLOUDY    60  51  72 W17G25    30.01S
LE MARS        CLOUDY    64  48  55 MISG      30.09F
ORANGE CITY    CLOUDY    63  50  63 NW20G28   30.08F
SHELDON        CLOUDY    57  52  82 W13G25    30.06S
SIOUX CITY     MOSUNNY   68  49  50 NW25G36   30.09F
SPENCER        LGT RAIN  57  52  83 W23G37    30.05R
STORM LAKE     CLOUDY    61  48  63 W21G31    30.08R
$$

ABBREVIATIONS USED IN REMARKS
   TC - TEMPERATURE IN CELSIUS
  WCI - WIND CHILL INDEX
   HX - HEAT INDEX
  VSB - VISIBILITY




USA.gov is the U.S. government's official web portal to all federal, state and local government web resources and services.